Location: Montreal
(45.5000°N, 73.5833°W)
Time: 23:12:19
(UTC-04:00)

Envisat - Pass Details

Date: 08 October 2017
Orbit: 764 x 766 km, 98.2° (Epoch: 20 October)

Event Time Altitude Azimuth Distance (km) Brightness Sun altitude
Exits shadow 20:41:25 58° 174° (S) 892 3.1 -25.2°
Maximum altitude 20:42:27 85° 257° (WSW) 775 2.9 -25.4°
Drops below altitude 10° 20:47:34 10° 345° (NNW) 2,312 5.9 -26.2°
Sets 20:49:53 0° 347° (NNW) 3,243 6.7 -26.6°
